Flag for Japan Weather past 2 weeks in Hamamatsu, Japan

Now
70 °F

Rain. Cloudy.


Feels Like: 62 °F
Forecast: 67 / 73 °F
Wind: 9 mph from West

Location: Omaezaki

Current Time: Jul 3, 2015 at 12:44:04 PM

Latest Report: Jul 3, 2015 at 11:00 AM


Visibility: 0 mi

Pressure: 29.71 "Hg

Humidity: 100%

Dew point: 70 °F

Location of HamamatsuLocation

Historic Weather in Hamamatsu — Graph

°F

Hamamatsu temperature yesterday

Maximum temperature yesterday: 72 °F (at 3:00 PM)
Minimum temperature yesterday: 68 °F (at 11:00 AM)
Average temperature yesterday: 69 °F

Past Weeks' High & Low Weather Summary

 TemperatureHumidityPressure
High80 °F (Jun 28, 11:00 AM)100% (Jun 26, 11:00 PM)29.94 "Hg (Jun 26, 11:00 PM)
Low64 °F (Jun 22, 5:00 AM)49% (Jun 28, 11:00 AM)29.29 "Hg (Jul 1, 12:00 PM)
Average70 °F87%29.71 "Hg
* Reported Jun 18 11:00 AM — Jul 3 11:00 AM, Hamamatsu, Weather by CustomWeather, © 2015

Note: Actual official high and low records may vary slightly from our data, if they occured in-between our weather recording intervals... More about our weather records

Advertising

Hamamatsu weather history for previous 24 hours

 ConditionsComfort  
Time TempWeatherWind HumidityBarometerVisibility
11:00 AM
Fri, Jul 3
70 °FRain. Cloudy.9 mph100%29.71 "Hg1 mi
10:00 AM71 °FRain. Cloudy.18 mph99%29.69 "Hg1 mi
9:00 AM71 °FLight rain. Cloudy.15 mph100%29.68 "Hg2 mi
8:00 AM72 °FLight rain. Cloudy.18 mph100%29.67 "Hg2 mi
7:00 AM67 °FRain. Cloudy.9 mph100%29.68 "Hg0 mi
6:00 AM67 °FRain. Cloudy.7 mph100%29.70 "Hg1 mi
5:00 AM67 °FRain. Cloudy.5 mph99%29.71 "Hg1 mi
4:00 AM67 °FLight rain. Cloudy.3 mph99%29.70 "Hg2 mi
3:00 AM66 °FRain. Overcast.5 mph99%29.71 "Hg2 mi
2:00 AM67 °FRain. Overcast.8 mph97%29.71 "Hg1 mi
1:00 AM70 °FLight rain. Overcast.7 mph99%29.69 "Hg1 mi
12:00 AM69 °FMild.8 mph99%29.71 "Hg1 mi
11:00 PM
Thu, Jul 2
69 °FLight rain. Overcast.8 mph99%29.71 "Hg1 mi
10:00 PM69 °FLight rain. Overcast.9 mph99%29.71 "Hg1 mi
9:00 PM69 °FFog.9 mph99%29.72 "Hg1 mi
8:00 PM69 °FMild.12 mph99%29.68 "Hg2 mi
7:00 PM69 °FLight rain. Overcast.12 mph98%29.68 "Hg2 mi
6:00 PM69 °FFog.12 mph98%29.65 "Hg3 mi
5:00 PM70 °FFog.12 mph96%29.64 "Hg4 mi
4:00 PM71 °FFog.10 mph94%29.62 "Hg4 mi
3:00 PM72 °FMild.9 mph92%29.62 "Hg7 mi
2:00 PM70 °FFog.10 mph94%29.63 "Hg5 mi
1:00 PM69 °FMild.7 mph99%29.64 "Hg1 mi
12:00 PM68 °FLight rain. Cloudy.7 mph99%29.62 "Hg1 mi
Weather by CustomWeather, © 2015

See weather overviewHow to use our weather pages